Year,Month,Day,Hour,Minute,Value (Times are PST for temperature in C)
2010,08,13,00,00,15.70
2010,08,13,00,01,15.70
2010,08,13,00,02,15.70
2010,08,13,00,03,15.80
2010,08,13,00,04,15.80
2010,08,13,00,05,15.80
2010,08,13,00,06,15.80
2010,08,13,00,07,15.80
2010,08,13,00,08,15.80
2010,08,13,00,09,15.80
2010,08,13,00,10,15.80
2010,08,13,00,11,15.80
2010,08,13,00,12,15.80
2010,08,13,00,13,15.90
2010,08,13,00,14,15.90
2010,08,13,00,15,15.90
2010,08,13,00,16,15.90
2010,08,13,00,17,15.80
2010,08,13,00,18,15.80
2010,08,13,00,19,15.80
2010,08,13,00,20,15.80
2010,08,13,00,21,15.80
2010,08,13,00,22,15.80
2010,08,13,00,23,15.80
2010,08,13,00,24,15.80
2010,08,13,00,25,15.80
2010,08,13,00,26,15.80
2010,08,13,00,27,15.80
2010,08,13,00,28,15.80
2010,08,13,00,29,15.80
2010,08,13,00,30,15.80
2010,08,13,00,31,15.80
2010,08,13,00,32,15.80
2010,08,13,00,33,15.90
2010,08,13,00,34,15.90
2010,08,13,00,35,15.90
2010,08,13,00,36,15.90
2010,08,13,00,37,15.90
2010,08,13,00,38,15.90
2010,08,13,00,39,15.90
2010,08,13,00,40,15.90
2010,08,13,00,41,15.90
2010,08,13,00,42,15.90
2010,08,13,00,43,15.90
2010,08,13,00,44,15.90
2010,08,13,00,45,15.90
2010,08,13,00,46,15.90
2010,08,13,00,47,15.90
2010,08,13,00,48,15.90
2010,08,13,00,49,15.90
2010,08,13,00,50,15.90
2010,08,13,00,51,15.90
2010,08,13,00,52,15.90
2010,08,13,00,53,15.80
2010,08,13,00,54,15.80
2010,08,13,00,55,15.80
2010,08,13,00,56,15.80
2010,08,13,00,57,15.80
2010,08,13,00,58,15.80
2010,08,13,00,59,15.70
2010,08,13,01,00,15.70
2010,08,13,01,01,15.70
2010,08,13,01,02,15.60
2010,08,13,01,03,15.60
2010,08,13,01,04,15.50
2010,08,13,01,05,15.50
2010,08,13,01,06,15.40
2010,08,13,01,07,15.40
2010,08,13,01,08,15.40
2010,08,13,01,09,15.30
2010,08,13,01,10,15.30
2010,08,13,01,11,15.30
2010,08,13,01,12,15.30
2010,08,13,01,13,15.30
2010,08,13,01,14,15.20
2010,08,13,01,15,15.20
2010,08,13,01,16,15.20
2010,08,13,01,17,15.20
2010,08,13,01,18,15.10
2010,08,13,01,19,15.10
2010,08,13,01,20,15.10
2010,08,13,01,21,15.00
2010,08,13,01,22,15.00
2010,08,13,01,23,15.00
2010,08,13,01,24,15.00
2010,08,13,01,25,14.90
2010,08,13,01,26,14.90
2010,08,13,01,27,14.90
2010,08,13,01,28,14.90
2010,08,13,01,29,14.90
2010,08,13,01,30,14.90
2010,08,13,01,31,14.90
2010,08,13,01,32,14.90
2010,08,13,01,33,14.90
2010,08,13,01,34,14.90
2010,08,13,01,35,14.90
2010,08,13,01,36,14.90
2010,08,13,01,37,14.90
2010,08,13,01,38,14.90
2010,08,13,01,39,14.90
2010,08,13,01,40,14.90
2010,08,13,01,41,14.90
2010,08,13,01,42,14.90
2010,08,13,01,43,14.90
2010,08,13,01,44,14.90
2010,08,13,01,45,14.90
2010,08,13,01,46,14.90
2010,08,13,01,47,14.90
2010,08,13,01,48,14.90
2010,08,13,01,49,14.90
2010,08,13,01,50,14.90
2010,08,13,01,51,14.90
2010,08,13,01,52,14.80
2010,08,13,01,53,14.80
2010,08,13,01,54,14.80
2010,08,13,01,55,14.80
2010,08,13,01,56,14.80
2010,08,13,01,57,14.80
2010,08,13,01,58,14.70
2010,08,13,01,59,14.70
2010,08,13,02,00,14.70
2010,08,13,02,01,14.60
2010,08,13,02,02,14.60
2010,08,13,02,03,14.60
2010,08,13,02,04,14.50
2010,08,13,02,05,14.50
2010,08,13,02,06,14.50
2010,08,13,02,07,14.50
2010,08,13,02,08,14.40
2010,08,13,02,09,14.40
2010,08,13,02,10,14.40
2010,08,13,02,11,14.30
2010,08,13,02,12,14.30
2010,08,13,02,13,14.30
2010,08,13,02,14,14.30
2010,08,13,02,15,14.30
2010,08,13,02,16,14.20
2010,08,13,02,17,14.20
2010,08,13,02,18,14.20
2010,08,13,02,19,14.20
2010,08,13,02,20,14.20
2010,08,13,02,21,14.20
2010,08,13,02,22,14.20
2010,08,13,02,23,14.20
2010,08,13,02,24,14.20
2010,08,13,02,25,14.20
2010,08,13,02,26,14.10
2010,08,13,02,27,14.10
2010,08,13,02,28,14.10
2010,08,13,02,29,14.10
2010,08,13,02,30,14.10
2010,08,13,02,31,14.00
2010,08,13,02,32,14.00
2010,08,13,02,33,14.00
2010,08,13,02,34,14.00
2010,08,13,02,35,14.00
2010,08,13,02,36,14.00
2010,08,13,02,37,14.00
2010,08,13,02,38,13.90
2010,08,13,02,39,13.90
2010,08,13,02,40,13.90
2010,08,13,02,41,13.90
2010,08,13,02,42,13.90
2010,08,13,02,43,13.90
2010,08,13,02,44,13.90
2010,08,13,02,45,13.90
2010,08,13,02,46,13.90
2010,08,13,02,47,13.90
2010,08,13,02,48,13.90
2010,08,13,02,49,13.90
2010,08,13,02,50,13.90
2010,08,13,02,51,13.90
2010,08,13,02,52,13.90
2010,08,13,02,53,14.00
2010,08,13,02,54,14.00
2010,08,13,02,55,14.00
2010,08,13,02,56,14.00
2010,08,13,02,57,14.00
2010,08,13,02,58,14.00
2010,08,13,02,59,14.00
2010,08,13,03,00,14.00
2010,08,13,03,01,14.00
2010,08,13,03,02,14.00
2010,08,13,03,03,14.00
2010,08,13,03,04,14.00
2010,08,13,03,05,14.10
2010,08,13,03,06,14.00
2010,08,13,03,07,14.00
2010,08,13,03,08,14.00
2010,08,13,03,09,14.00
2010,08,13,03,10,14.00
2010,08,13,03,11,14.00
2010,08,13,03,12,14.00
2010,08,13,03,13,14.00
2010,08,13,03,14,14.00
2010,08,13,03,15,14.00
2010,08,13,03,16,14.00
2010,08,13,03,17,14.00
2010,08,13,03,18,14.00
2010,08,13,03,19,13.90
2010,08,13,03,20,13.90
2010,08,13,03,21,13.90
2010,08,13,03,22,13.90
2010,08,13,03,23,13.80
2010,08,13,03,24,13.80
2010,08,13,03,25,13.70
2010,08,13,03,26,13.70
2010,08,13,03,27,13.70
2010,08,13,03,28,13.70
2010,08,13,03,29,13.70
2010,08,13,03,30,13.80
2010,08,13,03,31,13.80
2010,08,13,03,32,13.80
2010,08,13,03,33,13.80
2010,08,13,03,34,13.80
2010,08,13,03,35,13.80
2010,08,13,03,36,13.80
2010,08,13,03,37,13.80
2010,08,13,03,38,13.80
2010,08,13,03,39,13.80
2010,08,13,03,40,13.80
2010,08,13,03,41,13.80
2010,08,13,03,42,13.80
2010,08,13,03,43,13.70
2010,08,13,03,44,13.70
2010,08,13,03,45,13.70
2010,08,13,03,46,13.70
2010,08,13,03,47,13.70
2010,08,13,03,48,13.70
2010,08,13,03,49,13.60
2010,08,13,03,50,13.60
2010,08,13,03,51,13.60
2010,08,13,03,52,13.60
2010,08,13,03,53,13.60
2010,08,13,03,54,13.60
2010,08,13,03,55,13.60
2010,08,13,03,56,13.60
2010,08,13,03,57,13.60
2010,08,13,03,58,13.60
2010,08,13,03,59,13.60
2010,08,13,04,00,13.60
2010,08,13,04,01,13.60
2010,08,13,04,02,13.50
2010,08,13,04,03,13.50
2010,08,13,04,04,13.50
2010,08,13,04,05,13.50
2010,08,13,04,06,13.40
2010,08,13,04,07,13.40
2010,08,13,04,08,13.40
2010,08,13,04,09,13.30
2010,08,13,04,10,13.30
2010,08,13,04,11,13.30
2010,08,13,04,12,13.30
2010,08,13,04,13,13.30
2010,08,13,04,14,13.30
2010,08,13,04,15,13.30
2010,08,13,04,16,13.30
2010,08,13,04,17,13.40
2010,08,13,04,18,13.40
2010,08,13,04,19,13.40
2010,08,13,04,20,13.40
2010,08,13,04,21,13.40
2010,08,13,04,22,13.40
2010,08,13,04,23,13.40
2010,08,13,04,24,13.40
2010,08,13,04,25,13.40
2010,08,13,04,26,13.40
2010,08,13,04,27,13.40
2010,08,13,04,28,13.40
2010,08,13,04,29,13.40
2010,08,13,04,30,13.40
2010,08,13,04,31,13.40
2010,08,13,04,32,13.40
2010,08,13,04,33,13.40
2010,08,13,04,34,13.30
2010,08,13,04,35,13.30
2010,08,13,04,36,13.30
2010,08,13,04,37,13.30
2010,08,13,04,38,13.30
2010,08,13,04,39,13.30
2010,08,13,04,40,13.30
2010,08,13,04,41,13.30
2010,08,13,04,42,13.20
2010,08,13,04,43,13.20
2010,08,13,04,44,13.20
2010,08,13,04,45,13.20
2010,08,13,04,46,13.20
2010,08,13,04,47,13.20
2010,08,13,04,48,13.20
2010,08,13,04,49,13.20
2010,08,13,04,50,13.20
2010,08,13,04,51,13.20
2010,08,13,04,52,13.10
2010,08,13,04,53,13.10
2010,08,13,04,54,13.10
2010,08,13,04,55,13.10
2010,08,13,04,56,13.10
2010,08,13,04,57,13.10
2010,08,13,04,58,13.10
2010,08,13,04,59,13.10
2010,08,13,05,00,13.00
2010,08,13,05,01,13.00
2010,08,13,05,02,13.00
2010,08,13,05,03,13.00
2010,08,13,05,04,13.00
2010,08,13,05,05,13.00
2010,08,13,05,06,13.00
2010,08,13,05,07,13.00
2010,08,13,05,08,13.00
2010,08,13,05,09,13.00
2010,08,13,05,10,13.00
2010,08,13,05,11,13.00
2010,08,13,05,12,13.00
2010,08,13,05,13,13.00
2010,08,13,05,14,13.00
2010,08,13,05,15,12.90
2010,08,13,05,16,12.90
2010,08,13,05,17,12.90
2010,08,13,05,18,12.90
2010,08,13,05,19,12.90
2010,08,13,05,20,12.90
2010,08,13,05,21,12.90
2010,08,13,05,22,12.90
2010,08,13,05,23,12.90
2010,08,13,05,24,12.90
2010,08,13,05,25,12.80
2010,08,13,05,26,12.80
2010,08,13,05,27,12.80
2010,08,13,05,28,12.80
2010,08,13,05,29,12.80
2010,08,13,05,30,12.80
2010,08,13,05,31,12.80
2010,08,13,05,32,12.80
2010,08,13,05,33,12.80
2010,08,13,05,34,12.80
2010,08,13,05,35,12.90
2010,08,13,05,36,12.90
2010,08,13,05,37,12.80
2010,08,13,05,38,12.80
2010,08,13,05,39,12.80
2010,08,13,05,40,12.80
2010,08,13,05,41,12.80
2010,08,13,05,42,12.80
2010,08,13,05,43,12.80
2010,08,13,05,44,12.80
2010,08,13,05,45,12.80
2010,08,13,05,46,12.80
2010,08,13,05,47,12.80
2010,08,13,05,48,12.80
2010,08,13,05,49,12.80
2010,08,13,05,50,12.80
2010,08,13,05,51,12.80
2010,08,13,05,52,12.80
2010,08,13,05,53,12.70
2010,08,13,05,54,12.70
2010,08,13,05,55,12.70
2010,08,13,05,56,12.80
2010,08,13,05,57,12.80
2010,08,13,05,58,12.70
2010,08,13,05,59,12.70
2010,08,13,06,00,12.70
2010,08,13,06,01,12.70
2010,08,13,06,02,12.70
2010,08,13,06,03,12.60
2010,08,13,06,04,12.60
2010,08,13,06,05,12.60
2010,08,13,06,06,12.60
2010,08,13,06,07,12.60
2010,08,13,06,08,12.60
2010,08,13,06,09,12.70
2010,08,13,06,10,12.70
2010,08,13,06,11,12.70
2010,08,13,06,12,12.70
2010,08,13,06,13,12.70
2010,08,13,06,14,12.60
2010,08,13,06,15,12.60
2010,08,13,06,16,12.60
2010,08,13,06,17,12.60
2010,08,13,06,18,12.60
2010,08,13,06,19,12.60
2010,08,13,06,20,12.60
2010,08,13,06,21,12.60
2010,08,13,06,22,12.60
2010,08,13,06,23,12.60
2010,08,13,06,24,12.60
2010,08,13,06,25,12.60
2010,08,13,06,26,12.60
2010,08,13,06,27,12.60
2010,08,13,06,28,12.60
2010,08,13,06,29,12.60
2010,08,13,06,30,12.60
2010,08,13,06,31,12.60
2010,08,13,06,32,12.60
2010,08,13,06,33,12.60
2010,08,13,06,34,12.50
2010,08,13,06,35,12.50
2010,08,13,06,36,12.50
2010,08,13,06,37,12.50
2010,08,13,06,38,12.50
2010,08,13,06,39,12.50
2010,08,13,06,40,12.50
2010,08,13,06,41,12.50
2010,08,13,06,42,12.50
2010,08,13,06,43,12.50
2010,08,13,06,44,12.50
2010,08,13,06,45,12.50
2010,08,13,06,46,12.50
2010,08,13,06,47,12.50
2010,08,13,06,48,12.50
2010,08,13,06,49,12.60
2010,08,13,06,50,12.60
2010,08,13,06,51,12.60
2010,08,13,06,52,12.60
2010,08,13,06,53,12.60
2010,08,13,06,54,12.70
2010,08,13,06,55,12.70
2010,08,13,06,56,12.70
2010,08,13,06,57,12.80
2010,08,13,06,58,12.80
2010,08,13,06,59,12.80
2010,08,13,07,00,12.80
2010,08,13,07,01,12.80
2010,08,13,07,02,12.80
2010,08,13,07,03,12.80
2010,08,13,07,04,12.80
2010,08,13,07,05,12.90
2010,08,13,07,06,12.90
2010,08,13,07,07,12.90
2010,08,13,07,08,13.00
2010,08,13,07,09,13.00
2010,08,13,07,10,13.00
2010,08,13,07,11,13.00
2010,08,13,07,12,13.00
2010,08,13,07,13,13.00
2010,08,13,07,14,13.00
2010,08,13,07,15,13.00
2010,08,13,07,16,13.00
2010,08,13,07,17,13.00
2010,08,13,07,18,13.00
2010,08,13,07,19,13.10
2010,08,13,07,20,13.10
2010,08,13,07,21,13.10
2010,08,13,07,22,13.10
2010,08,13,07,23,13.20
2010,08,13,07,24,13.20
2010,08,13,07,25,13.20
2010,08,13,07,26,13.20
2010,08,13,07,27,13.20
2010,08,13,07,28,13.30
2010,08,13,07,29,13.30
2010,08,13,07,30,13.30
2010,08,13,07,31,13.40
2010,08,13,07,32,13.50
2010,08,13,07,33,13.60
2010,08,13,07,34,13.60
2010,08,13,07,35,13.60
2010,08,13,07,36,13.60
2010,08,13,07,37,13.70
2010,08,13,07,38,13.70
2010,08,13,07,39,13.70
2010,08,13,07,40,13.70
2010,08,13,07,41,13.70
2010,08,13,07,42,13.70
2010,08,13,07,43,13.80
2010,08,13,07,44,13.80
2010,08,13,07,45,13.90
2010,08,13,07,46,13.90
2010,08,13,07,47,14.00
2010,08,13,07,48,14.00
2010,08,13,07,49,14.00
2010,08,13,07,50,14.10
2010,08,13,07,51,14.10
2010,08,13,07,52,14.20
2010,08,13,07,53,14.20
2010,08,13,07,54,14.40
2010,08,13,07,55,14.50
2010,08,13,07,56,14.60
2010,08,13,07,57,14.70
2010,08,13,07,58,14.80
2010,08,13,07,59,15.00
2010,08,13,08,00,15.10
2010,08,13,08,01,15.10
2010,08,13,08,02,15.20
2010,08,13,08,03,15.30
2010,08,13,08,04,15.40
2010,08,13,08,05,15.50
2010,08,13,08,06,15.60
2010,08,13,08,07,15.70
2010,08,13,08,08,15.80
2010,08,13,08,09,16.00
2010,08,13,08,10,16.20
2010,08,13,08,11,16.30
2010,08,13,08,12,16.40
2010,08,13,08,13,16.60
2010,08,13,08,14,16.70
2010,08,13,08,15,16.90
2010,08,13,08,16,17.00
2010,08,13,08,17,17.10
2010,08,13,08,18,17.20
2010,08,13,08,19,17.30
2010,08,13,08,20,17.40
2010,08,13,08,21,17.50
2010,08,13,08,22,17.70
2010,08,13,08,23,17.80
2010,08,13,08,24,17.90
2010,08,13,08,25,17.90
2010,08,13,08,26,18.10
2010,08,13,08,27,18.20
2010,08,13,08,28,18.20
2010,08,13,08,29,18.20
2010,08,13,08,30,18.20
2010,08,13,08,31,18.20
2010,08,13,08,32,18.20
2010,08,13,08,33,18.20
2010,08,13,08,34,18.20
2010,08,13,08,35,18.20
2010,08,13,08,36,18.30
2010,08,13,08,37,18.30
2010,08,13,08,38,18.40
2010,08,13,08,39,18.40
2010,08,13,08,40,18.50
2010,08,13,08,41,18.50
2010,08,13,08,42,18.60
2010,08,13,08,43,18.70
2010,08,13,08,44,18.70
2010,08,13,08,45,18.70
2010,08,13,08,46,18.70
2010,08,13,08,47,18.70
2010,08,13,08,48,18.70
2010,08,13,08,49,18.80
2010,08,13,08,50,19.00
2010,08,13,08,51,19.10
2010,08,13,08,52,19.20
2010,08,13,08,53,19.20
2010,08,13,08,54,19.30
2010,08,13,08,55,19.40
2010,08,13,08,56,19.60
2010,08,13,08,57,19.70
2010,08,13,08,58,19.80
2010,08,13,08,59,19.90
2010,08,13,09,00,19.90
2010,08,13,09,01,19.90
2010,08,13,09,02,19.90
2010,08,13,09,03,19.90
2010,08,13,09,04,19.90
2010,08,13,09,05,19.90
2010,08,13,09,06,19.80
2010,08,13,09,07,19.70
2010,08,13,09,08,19.60
2010,08,13,09,09,19.60
2010,08,13,09,10,19.60
2010,08,13,09,11,19.70
2010,08,13,09,12,19.70
2010,08,13,09,13,19.70
2010,08,13,09,14,19.80
2010,08,13,09,15,19.70
2010,08,13,09,16,19.60
2010,08,13,09,17,19.60
2010,08,13,09,18,19.70
2010,08,13,09,19,19.80
2010,08,13,09,20,19.90
2010,08,13,09,21,19.90
2010,08,13,09,22,20.10
2010,08,13,09,23,20.10
2010,08,13,09,24,20.20
2010,08,13,09,25,20.20
2010,08,13,09,26,20.20
2010,08,13,09,27,20.20
2010,08,13,09,28,20.30
2010,08,13,09,29,20.40
2010,08,13,09,30,20.40
2010,08,13,09,31,20.50
2010,08,13,09,32,20.50
2010,08,13,09,33,20.60
2010,08,13,09,34,20.70
2010,08,13,09,35,20.80
2010,08,13,09,36,20.80
2010,08,13,09,37,21.00
2010,08,13,09,38,21.00
2010,08,13,09,39,21.10
2010,08,13,09,40,21.20
2010,08,13,09,41,21.30
2010,08,13,09,42,21.50
2010,08,13,09,43,21.60
2010,08,13,09,44,21.60
2010,08,13,09,45,21.60
2010,08,13,09,46,21.70
2010,08,13,09,47,21.80
2010,08,13,09,48,21.90
2010,08,13,09,49,21.90
2010,08,13,09,50,22.00
2010,08,13,09,51,22.00
2010,08,13,09,52,21.80
2010,08,13,09,53,21.70
2010,08,13,09,54,21.80
2010,08,13,09,55,21.80
2010,08,13,09,56,21.70
2010,08,13,09,57,21.50
2010,08,13,09,58,21.30
2010,08,13,09,59,21.30
2010,08,13,10,00,21.30
2010,08,13,10,01,21.30
2010,08,13,10,02,21.10
2010,08,13,10,03,21.00
2010,08,13,10,04,20.80
2010,08,13,10,05,20.70
2010,08,13,10,06,20.60
2010,08,13,10,07,20.60
2010,08,13,10,08,20.60
2010,08,13,10,09,20.60
2010,08,13,10,10,20.60
2010,08,13,10,11,20.50
2010,08,13,10,12,20.50
2010,08,13,10,13,20.60
2010,08,13,10,14,20.70
2010,08,13,10,15,20.80
2010,08,13,10,16,20.90
2010,08,13,10,17,20.80
2010,08,13,10,18,20.80
2010,08,13,10,19,21.00
2010,08,13,10,20,21.00
2010,08,13,10,21,21.10
2010,08,13,10,22,21.10
2010,08,13,10,23,21.00
2010,08,13,10,24,21.00
2010,08,13,10,25,21.00
2010,08,13,10,26,20.90
2010,08,13,10,27,20.90
2010,08,13,10,28,20.80
2010,08,13,10,29,20.80
2010,08,13,10,30,20.60
2010,08,13,10,31,20.40
2010,08,13,10,32,20.30
2010,08,13,10,33,20.30
2010,08,13,10,34,20.40
2010,08,13,10,35,20.40
2010,08,13,10,36,20.40
2010,08,13,10,37,20.20
2010,08,13,10,38,20.20
2010,08,13,10,39,20.30
2010,08,13,10,40,20.30
2010,08,13,10,41,20.30
2010,08,13,10,42,20.40
2010,08,13,10,43,20.40
2010,08,13,10,44,20.30
2010,08,13,10,45,20.30
2010,08,13,10,46,20.30
2010,08,13,10,47,20.30
2010,08,13,10,48,20.30
2010,08,13,10,49,20.20
2010,08,13,10,50,20.00
2010,08,13,10,51,19.70
2010,08,13,10,52,19.50
2010,08,13,10,53,19.50
2010,08,13,10,54,19.60
2010,08,13,10,55,19.70
2010,08,13,10,56,19.80
2010,08,13,10,57,19.90
2010,08,13,10,58,20.00
2010,08,13,10,59,20.10
2010,08,13,11,00,20.20
2010,08,13,11,01,20.20
2010,08,13,11,02,20.20
2010,08,13,11,03,20.20
2010,08,13,11,04,20.20
2010,08,13,11,05,20.20
2010,08,13,11,06,20.40
2010,08,13,11,07,20.40
2010,08,13,11,08,20.40
2010,08,13,11,09,20.30
2010,08,13,11,10,20.40
2010,08,13,11,11,20.40
2010,08,13,11,12,20.40
2010,08,13,11,13,20.60
2010,08,13,11,14,20.60
2010,08,13,11,15,20.60
2010,08,13,11,16,20.60
2010,08,13,11,17,20.70
2010,08,13,11,18,20.80
2010,08,13,11,19,20.90
2010,08,13,11,20,21.00
2010,08,13,11,21,21.10
2010,08,13,11,22,21.20
2010,08,13,11,23,21.30
2010,08,13,11,24,21.50
2010,08,13,11,25,21.60
2010,08,13,11,26,21.40
2010,08,13,11,27,21.30
2010,08,13,11,28,21.30
2010,08,13,11,29,21.30
2010,08,13,11,30,21.40
2010,08,13,11,31,21.50
2010,08,13,11,32,21.60
2010,08,13,11,33,21.70
2010,08,13,11,34,21.70
2010,08,13,11,35,21.70
2010,08,13,11,36,21.60
2010,08,13,11,37,21.40
2010,08,13,11,38,21.40
2010,08,13,11,39,21.40
2010,08,13,11,40,21.50
2010,08,13,11,41,21.50
2010,08,13,11,42,21.40
2010,08,13,11,43,21.50
2010,08,13,11,44,21.60
2010,08,13,11,45,21.60
2010,08,13,11,46,21.60
2010,08,13,11,47,21.60
2010,08,13,11,48,21.80
2010,08,13,11,49,22.00
2010,08,13,11,50,22.20
2010,08,13,11,51,22.40
2010,08,13,11,52,22.50
2010,08,13,11,53,22.60
2010,08,13,11,54,22.80
2010,08,13,11,55,22.90
2010,08,13,11,56,22.90
2010,08,13,11,57,22.70
2010,08,13,11,58,22.60
2010,08,13,11,59,22.50
2010,08,13,12,00,22.50
2010,08,13,12,01,22.30
2010,08,13,12,02,22.40
2010,08,13,12,03,22.40
2010,08,13,12,04,22.60
2010,08,13,12,05,22.70
2010,08,13,12,06,22.80
2010,08,13,12,07,22.90
2010,08,13,12,08,23.10
2010,08,13,12,09,23.30
2010,08,13,12,10,23.50
2010,08,13,12,11,23.70
2010,08,13,12,12,23.80
2010,08,13,12,13,23.90
2010,08,13,12,14,24.10
2010,08,13,12,15,24.10
2010,08,13,12,16,24.10
2010,08,13,12,17,24.10
2010,08,13,12,18,24.10
2010,08,13,12,19,24.10
2010,08,13,12,20,24.00
2010,08,13,12,21,23.70
2010,08,13,12,22,23.40
2010,08,13,12,23,23.10
2010,08,13,12,24,22.90
2010,08,13,12,25,22.70
2010,08,13,12,26,22.50
2010,08,13,12,27,22.40
2010,08,13,12,28,22.50
2010,08,13,12,29,22.70
2010,08,13,12,30,22.90
2010,08,13,12,31,23.20
2010,08,13,12,32,23.30
2010,08,13,12,33,23.60
2010,08,13,12,34,23.70
2010,08,13,12,35,23.70
2010,08,13,12,36,23.80
2010,08,13,12,37,23.90
2010,08,13,12,38,24.10
2010,08,13,12,39,24.20
2010,08,13,12,40,24.30
2010,08,13,12,41,24.30
2010,08,13,12,42,24.20
2010,08,13,12,43,24.10
2010,08,13,12,44,24.00
2010,08,13,12,45,23.90
2010,08,13,12,46,23.80
2010,08,13,12,47,23.90
2010,08,13,12,48,24.10
2010,08,13,12,49,24.20
2010,08,13,12,50,24.40
2010,08,13,12,51,24.60
2010,08,13,12,52,24.80
2010,08,13,12,53,25.00
2010,08,13,12,54,25.10
2010,08,13,12,55,25.20
2010,08,13,12,56,25.30
2010,08,13,12,57,25.20
2010,08,13,12,58,24.90
2010,08,13,12,59,24.70
2010,08,13,13,00,24.50
2010,08,13,13,01,24.50
2010,08,13,13,02,24.50
2010,08,13,13,03,24.50
2010,08,13,13,04,24.50
2010,08,13,13,05,24.50
2010,08,13,13,06,24.60
2010,08,13,13,07,24.80
2010,08,13,13,08,24.90
2010,08,13,13,09,24.90
2010,08,13,13,10,25.00
2010,08,13,13,11,25.00
2010,08,13,13,12,25.00
2010,08,13,13,13,25.00
2010,08,13,13,14,25.00
2010,08,13,13,15,25.20
2010,08,13,13,16,25.30
2010,08,13,13,17,25.40
2010,08,13,13,18,25.50
2010,08,13,13,19,25.50
2010,08,13,13,20,25.50
2010,08,13,13,21,25.50
2010,08,13,13,22,25.60
2010,08,13,13,23,25.70
2010,08,13,13,24,25.80
2010,08,13,13,25,25.80
2010,08,13,13,26,25.90
2010,08,13,13,27,26.00
2010,08,13,13,28,26.00
2010,08,13,13,29,26.10
2010,08,13,13,30,26.20
2010,08,13,13,31,26.20
2010,08,13,13,32,26.30
2010,08,13,13,33,26.40
2010,08,13,13,34,26.50
2010,08,13,13,35,26.60
2010,08,13,13,36,26.60
2010,08,13,13,37,26.70
2010,08,13,13,38,26.80
2010,08,13,13,39,26.90
2010,08,13,13,40,27.00
2010,08,13,13,41,27.10
2010,08,13,13,42,27.20
2010,08,13,13,43,27.30
2010,08,13,13,44,27.30
2010,08,13,13,45,27.30
2010,08,13,13,46,27.20
2010,08,13,13,47,27.00
2010,08,13,13,48,26.90
2010,08,13,13,49,26.90
2010,08,13,13,50,26.80
2010,08,13,13,51,26.80
2010,08,13,13,52,26.60
2010,08,13,13,53,26.20
2010,08,13,13,54,25.90
2010,08,13,13,55,25.70
2010,08,13,13,56,25.40
2010,08,13,13,57,25.30
2010,08,13,13,58,25.40
2010,08,13,13,59,25.40
2010,08,13,14,00,25.20
2010,08,13,14,01,25.20
2010,08,13,14,02,25.30
2010,08,13,14,03,25.40
2010,08,13,14,04,25.60
2010,08,13,14,05,25.80
2010,08,13,14,06,26.00
2010,08,13,14,07,26.10
2010,08,13,14,08,26.30
2010,08,13,14,09,26.30
2010,08,13,14,10,26.30
2010,08,13,14,11,26.10
2010,08,13,14,12,26.10
2010,08,13,14,13,25.90
2010,08,13,14,14,25.70
2010,08,13,14,15,25.60
2010,08,13,14,16,25.60
2010,08,13,14,17,25.70
2010,08,13,14,18,25.80
2010,08,13,14,19,25.90
2010,08,13,14,20,26.00
2010,08,13,14,21,26.20
2010,08,13,14,22,26.30
2010,08,13,14,23,26.30
2010,08,13,14,24,26.30
2010,08,13,14,25,26.30
2010,08,13,14,26,26.10
2010,08,13,14,27,25.70
2010,08,13,14,28,25.30
2010,08,13,14,29,25.10
2010,08,13,14,30,24.90
2010,08,13,14,31,24.60
2010,08,13,14,32,24.50
2010,08,13,14,33,24.50
2010,08,13,14,34,24.60
2010,08,13,14,35,24.70
2010,08,13,14,36,24.90
2010,08,13,14,37,25.20
2010,08,13,14,38,25.40
2010,08,13,14,39,25.50
2010,08,13,14,40,25.70
2010,08,13,14,41,25.90
2010,08,13,14,42,26.00
2010,08,13,14,43,26.20
2010,08,13,14,44,26.30
2010,08,13,14,45,26.30
2010,08,13,14,46,26.30
2010,08,13,14,47,26.30
2010,08,13,14,48,26.20
2010,08,13,14,49,26.10
2010,08,13,14,50,26.00
2010,08,13,14,51,26.20
2010,08,13,14,52,26.20
2010,08,13,14,53,26.30
2010,08,13,14,54,26.40
2010,08,13,14,55,26.50
2010,08,13,14,56,26.60
2010,08,13,14,57,26.70
2010,08,13,14,58,26.90
2010,08,13,14,59,27.10
2010,08,13,15,00,27.30
2010,08,13,15,01,27.30
2010,08,13,15,02,27.60
2010,08,13,15,03,27.60
2010,08,13,15,04,27.40
2010,08,13,15,05,27.30
2010,08,13,15,06,27.20
2010,08,13,15,07,27.00
2010,08,13,15,08,26.80
2010,08,13,15,09,26.70
2010,08,13,15,10,26.60
2010,08,13,15,11,26.70
2010,08,13,15,12,26.70
2010,08,13,15,13,26.70
2010,08,13,15,14,26.60
2010,08,13,15,15,26.80
2010,08,13,15,16,26.80
2010,08,13,15,17,26.60
2010,08,13,15,18,26.40
2010,08,13,15,19,26.00
2010,08,13,15,20,25.90
2010,08,13,15,21,25.80
2010,08,13,15,22,25.70
2010,08,13,15,23,25.70
2010,08,13,15,24,25.70
2010,08,13,15,25,25.80
2010,08,13,15,26,25.80
2010,08,13,15,27,25.80
2010,08,13,15,28,25.80
2010,08,13,15,29,25.80
2010,08,13,15,30,25.80
2010,08,13,15,31,25.70
2010,08,13,15,32,25.60
2010,08,13,15,33,25.50
2010,08,13,15,34,25.40
2010,08,13,15,35,25.40
2010,08,13,15,36,25.40
2010,08,13,15,37,25.30
2010,08,13,15,38,25.30
2010,08,13,15,39,25.30
2010,08,13,15,40,25.20
2010,08,13,15,41,25.30
2010,08,13,15,42,25.30
2010,08,13,15,43,25.20
2010,08,13,15,44,25.10
2010,08,13,15,45,25.20
2010,08,13,15,46,25.30
2010,08,13,15,47,25.50
2010,08,13,15,48,25.70
2010,08,13,15,49,25.90
2010,08,13,15,50,26.00
2010,08,13,15,51,26.00
2010,08,13,15,52,26.00
2010,08,13,15,53,25.90
2010,08,13,15,54,25.90
2010,08,13,15,55,25.90
2010,08,13,15,56,26.00
2010,08,13,15,57,26.00
2010,08,13,15,58,26.00
2010,08,13,15,59,25.80
2010,08,13,16,00,25.90
2010,08,13,16,01,26.10
2010,08,13,16,02,26.20
2010,08,13,16,03,26.20
2010,08,13,16,04,26.20
2010,08,13,16,05,26.20
2010,08,13,16,06,26.00
2010,08,13,16,07,26.00
2010,08,13,16,08,26.00
2010,08,13,16,09,26.10
2010,08,13,16,10,26.10
2010,08,13,16,11,26.20
2010,08,13,16,12,26.30
2010,08,13,16,13,26.30
2010,08,13,16,14,26.30
2010,08,13,16,15,26.40
2010,08,13,16,16,26.40
2010,08,13,16,17,26.40
2010,08,13,16,18,26.40
2010,08,13,16,19,26.40
2010,08,13,16,20,26.40
2010,08,13,16,21,26.20
2010,08,13,16,22,26.20
2010,08,13,16,23,26.20
2010,08,13,16,24,26.30
2010,08,13,16,25,26.40
2010,08,13,16,26,26.60
2010,08,13,16,27,26.60
2010,08,13,16,28,26.50
2010,08,13,16,29,26.30
2010,08,13,16,30,26.20
2010,08,13,16,31,26.10
2010,08,13,16,32,26.10
2010,08,13,16,33,26.10
2010,08,13,16,34,25.90
2010,08,13,16,35,25.80
2010,08,13,16,36,25.80
2010,08,13,16,37,25.80
2010,08,13,16,38,25.90
2010,08,13,16,39,26.00
2010,08,13,16,40,26.00
2010,08,13,16,41,26.00
2010,08,13,16,42,26.00
2010,08,13,16,43,25.90
2010,08,13,16,44,25.90
2010,08,13,16,45,25.80
2010,08,13,16,46,25.70
2010,08,13,16,47,25.70
2010,08,13,16,48,25.60
2010,08,13,16,49,25.50
2010,08,13,16,50,25.60
2010,08,13,16,51,25.70
2010,08,13,16,52,25.80
2010,08,13,16,53,25.90
2010,08,13,16,54,26.00
2010,08,13,16,55,26.10
2010,08,13,16,56,26.20
2010,08,13,16,57,26.20
2010,08,13,16,58,26.30
2010,08,13,16,59,26.40
2010,08,13,17,00,26.50
2010,08,13,17,01,26.60
2010,08,13,17,02,26.60
2010,08,13,17,03,26.60
2010,08,13,17,04,26.70
2010,08,13,17,05,26.80
2010,08,13,17,06,26.90
2010,08,13,17,07,26.90
2010,08,13,17,08,26.90
2010,08,13,17,09,27.00
2010,08,13,17,10,27.10
2010,08,13,17,11,27.10
2010,08,13,17,12,27.10
2010,08,13,17,13,27.10
2010,08,13,17,14,27.10
2010,08,13,17,15,27.10
2010,08,13,17,16,27.10
2010,08,13,17,17,27.10
2010,08,13,17,18,27.10
2010,08,13,17,19,27.20